Hourly Data Report for January 26, 2019

TORONTO CITY
ONTARIO
Current Station Operator: ECCC - MSC

43°40'00.000" N
79°24'00.000" W
112.50 m
6158355
71508
XTO

Download Data

Hourly Data (January 2019)
Hourly Data Report for January 26, 2019
TIME
LST
Temp Definition
°C
Dew Point Definition
°C
Rel Hum Definition
%
Precip. Amount Definition
mm

Wind Dir Definition
10's deg

Wind Spd Definition
km/h
Visibility Definition
km
Stn Press Definition
kPa
Hmdx Definition


Wind Chill Definition


Weather Definition


00:00 -10.1 -16.6 59 0.0 LegendMM LegendMM   100.48     LegendNANA
01:00 -10.3 -16.7 59 0.0 LegendMM LegendMM   100.46     LegendNANA
02:00 -10.5 -16.3 62 0.0 LegendMM LegendMM   100.48     LegendNANA
03:00 -10.9 -16.3 65 0.0 LegendMM LegendMM   100.51     LegendNANA
04:00 -11.4 -16.3 67 0.0 LegendMM LegendMM   100.53     LegendNANA
05:00 -11.5 -16.4 67 0.0 LegendMM LegendMM   100.57     LegendNANA
06:00 -11.9 -16.5 68 0.0 LegendMM LegendMM   100.62     LegendNANA
07:00 -11.9 -16.5 69 0.0 LegendMM LegendMM   100.71     LegendNANA
08:00 -12.1 -16.6 70 0.0 LegendMM LegendMM   100.76     LegendNANA
09:00 -11.8 -16.8 67 0.0 LegendMM LegendMM   100.80     LegendNANA
10:00 -10.5 -17.0 59 0.2 LegendMM LegendMM   100.80     LegendNANA
11:00 -10.1 -18.1 52 0.0 LegendMM LegendMM   100.78     LegendNANA
12:00 -9.0 -18.0 48 0.0 LegendMM LegendMM   100.75     LegendNANA
13:00 -8.3 -19.9 39 0.0 LegendMM LegendMM   100.68     LegendNANA
14:00 -7.2 -18.6 40 0.0 LegendMM LegendMM   100.63     LegendNANA
15:00 -7.6 -17.8 44 0.0 LegendMM LegendMM   100.59     LegendNANA
16:00 -7.8 -16.5 50 0.0 LegendMM LegendMM   100.59     LegendNANA
17:00 -7.8 -15.4 55 0.0 LegendMM LegendMM   100.55     LegendNANA
18:00 -8.3 -15.3 57 0.0 LegendMM LegendMM   100.52     LegendNANA
19:00 -8.4 -14.5 61 0.0 LegendMM LegendMM   100.52     LegendNANA
20:00 -7.8 -13.1 65 0.0 LegendMM LegendMM   100.42     LegendNANA
21:00 -7.0 -11.1 73 0.0 LegendMM LegendMM   100.37     LegendNANA
22:00 -6.3 -9.3 79 0.0 LegendMM LegendMM   100.26     LegendNANA
23:00 -5.7 -8.6 81 0.0 LegendMM LegendMM   100.12     LegendNANA

Notes on Data Quality.

Legend

  • E = Estimated
  • M = Missing
  • NA = Not Available*
  • [empty] = Indicates an unobserved value
Date modified: